Location: Bühlhof
(48.7849°N, 8.6361°E)
Time: 20:45:24
(UTC+00:00)

Cosmos 1302 Rocket - Pass Details

Date: 19 January 2026
Orbit: 752 x 772 km, 74.0° (Epoch: 16 February)

Event Time Altitude Azimuth Distance (km) Brightness Sun altitude
Rises 17:47:57 0° 208° (SSW) 3,225 7.8 -16.9°
Reaches altitude 10° 17:50:20 10° 211° (SSW) 2,305 7.0 -17.3°
Maximum altitude 17:55:33 70° 295° (WNW) 820 4.2 -18.2°
Enters shadow 18:00:40 11° 19° (NNE) 2,264 6.2 -19.0°
